Regional Weather Roundup
Issued by NWS Sterling, VA

Home | Current Version | Previous Version | Graphics & Text | Print | Product List | Glossary On
Versions: 1 2 3 4 5 6 7 8 9 10 11 12 13 14 15 16 17 18 19 20 21 22 23 24 25 26 27 28 29 30 31 32 33 34 35 36 37 38 39 40 41 42 43 44 45 46 47 48 49 50
000
ASUS41 KLWX 311610
RWRLWX

REGIONAL WEATHER ROUNDUP
NATIONAL WEATHER SERVICE BALTIMORE MD/WASHINGTON DC
1200 PM EDT MON AUG 31 2015

Note: "FAIR" indicates few or no clouds below 12,000 feet
with no significant weather and/or obstructions to visibility.
 TC=TEMPERATURE CELSIUS

 * =Non NWS site. Station does not report precipitation (e.g. rain,
    snow, etc.), thunder, or fog.

DCZ001-MDZ009-015-VAZ040>042-051-053>054-311700-
WASHINGTON METRO

CITY           SKY/WX    TMP DP  RH WIND       PRES   REMARKS
WASHINGTON NAT CLOUDY    83  63  50 W9        30.11S
DULLES         CLOUDY    82  62  50 VRB3      30.11S
ANDREWS AFB    CLOUDY    82  64  54 SW12      30.11R
FT BELVOIR     CLOUDY    81  66  60 SW3       30.11S
QUANTICO       CLOUDY    79  69  71 S5        30.12S
COLLEGE PARK*  CLOUDY    84  63  48 SW7       30.10S
LEESBURG*      CLOUDY    81  72  74 SW10      30.12S
MANASSAS*      SUNNY     79  68  69 CALM      30.11F
GAITHERSBURG*  PTSUNNY   81  66  61 CALM      30.15F

$$

MDZ006>007-011-014-311700-
BALTIMORE METRO

CITY           SKY/WX    TMP DP  RH WIND       PRES   REMARKS
BWI AIRPORT    PTSUNNY   86  68  54 W8        30.09S
MD SCIENCE CTR   N/A     85  67  54 MISG      30.08F
MARTIN STATE   PTSUNNY   84  73  70 SE7       30.09F HX  91
ANNAPOLIS      CLOUDY    84  67  56 VRB6      30.09S
FORT MEADE*    PTSUNNY   81  68  65 SW7       30.12S

$$

MDZ012-015-019>023-311700-
MARYLAND EASTERN SHORE

CITY           SKY/WX    TMP DP  RH WIND       PRES   REMARKS
OCEAN CITY     PTSUNNY   86  65  49 SW8       30.10S
SALISBURY      CLOUDY    85  66  53 SW10      30.10S
BAY BRIDGE AP*   N/A     81  64  57 SW6       30.10S
CAMBRIDGE*     CLOUDY    82  68  61 W5        30.11R
EASTON*        SUNNY     84  68  58 W12       30.14R

$$

MDZ017>025-311700-
SOUTHERN MARYLAND

CITY           SKY/WX    TMP DP  RH WIND       PRES   REMARKS
PATUXENT RIVER CLOUDY    82  66  58 SW7       30.11R
ST INIGOES     CLOUDY    81  69  67 S7        30.11R
LEONARDTOWN*   NOT AVBL

$$

MDZ003>005-311700-
NORTH CENTRAL MARYLAND

CITY           SKY/WX    TMP DP  RH WIND       PRES   REMARKS
FREDERICK*     SUNNY     86  70  58 W7        30.13S HX  90
HAGERSTOWN APT CLOUDY    83  66  56 S5        30.12S
WESTMINSTER*   PTSUNNY   82  68  61 W5        30.12S

$$

MDZ501>502-311700-
WESTERN MARYLAND

CITY           SKY/WX    TMP DP  RH WIND       PRES   REMARKS
OAKLAND*       MOSUNNY   72  63  73 W3        30.23F
CUMBERLAND*    MOSUNNY   82  70  65 S7        30.16F

$$

VAZ025>031-311700-
SHENANDOAH VALLEY

CITY           SKY/WX    TMP DP  RH WIND       PRES   REMARKS
WINCHESTER*    CLOUDY    82  64  54 W5        30.12F
FRONT ROYAL*   FAIR      81  64  57 CALM      30.12S
LURAY*         FAIR      79  61  53 CALM      30.14S
NEW MARKET*    FAIR      78  66  67 CALM      30.13S
STAUNTON*      PTSUNNY   83  63  50 E3        30.17S
WAYNESBORO*    FAIR      83  61  47 SW3       30.15F

$$

WVZ021-048>050-054>055-311700-
EASTERN WEST VIRGINIA PANHANDLE

CITY           SKY/WX    TMP DP  RH WIND       PRES   REMARKS
MARTINSBURG    CLOUDY    82  66  58 SW5       30.12S
PETERSBURG*    CLOUDY    79  68  67 CALM      30.15F

$$

VAZ036>039-050-311700-
CENTRAL FOOTHILLS

CITY           SKY/WX    TMP DP  RH WIND       PRES   REMARKS
CHARLOTTESVILL PTSUNNY   79  65  62 S3        30.13S
CULPEPER*      CLOUDY    77  66  68 S5        30.12F
ORANGE*        CLOUDY    77  68  73 S6        30.14S
GORDONSVILLE*  FAIR      76  68  76 SW7       30.12F
WARRENTON*     FAIR      80  70  72 S6        30.12S

$$

VAZ055>057-311700-
NORTH AND CENTRAL PIEDMONT

CITY           SKY/WX    TMP DP  RH WIND       PRES   REMARKS
FREDERICKSBRG* CLOUDY    82  68  62 SW5       30.11F
STAFFORD*      CLOUDY    78  67  68 W5        30.16S

$$

NCZ024-NYZ072-PAZ021-071-VAZ022-071-311700-
OTHER REGIONAL OBSERVATIONS

CITY           SKY/WX    TMP DP  RH WIND       PRES   REMARKS
NEW YORK CITY  PTSUNNY   83  68  60 VRB3      30.06S
PHILADELPHIA   PTSUNNY   87  67  51 SW6       30.07S HX  90
PITTSBURGH     PTSUNNY   82  66  58 W7        30.14S
ROANOKE        MOSUNNY   80  61  52 S3        30.16F
RICHMOND       CLOUDY    79  66  64 SW12      30.14R
RALEIGH        CLOUDY    72  67  84 NE6       30.14R

$$

ANZ530>537-311700-
MARINE OBSERVATIONS

STATION/POSITION TIME  TEMP    WIND        PRES
                       AIR SEA DIR/SP/G
                 (UTC) (F)     (DEG/KT/KT) (MB)
THOMAS PT LIGHT  1602   81 79  250/  9/ 10 1019.6

$$



USA.gov is the U.S. government's official web portal to all federal, state and local government web resources and services.